This is the latest recevied weather packets stored in our database for station/object KJ7HSW. If no packets are shown the sender has not sent any weather packets the latest 10 day(s).
| Time | Temp. | Humidity | Pressure | Rain* | Wind** | Luminosity | Snow |
|---|---|---|---|---|---|---|---|
| 1777582750 | 23.33° C | 43% | 1018.7 hPa | 0 mm | - | 311 W/m² | - |
| 1777582445 | 23.33° C | 40% | 1018.7 hPa | 0 mm | - | 283 W/m² | - |
| 1777582145 | 23.33° C | 41% | 1018.6 hPa | 0 mm | - | 290 W/m² | - |
| 1777581838 | 23.33° C | 40% | 1018.6 hPa | 0 mm | - | 538 W/m² | - |
| 1777581536 | 23.33° C | 42% | 1018.7 hPa | 0 mm | - | 550 W/m² | - |
| 1777581233 | 23.33° C | 43% | 1018.8 hPa | 0 mm | - | 500 W/m² | - |
| 1777580927 | 23.33° C | 41% | 1019 hPa | 0 mm | - | 539 W/m² | - |
| 1777580627 | 23.33° C | 41% | 1018.8 hPa | 0 mm | - | 503 W/m² | - |
| 1777580323 | 23.33° C | 43% | 1018.7 hPa | 0 mm | - | 587 W/m² | - |
| 1777580015 | 23.33° C | 42% | 1018.9 hPa | 0 mm | - | 326 W/m² | - |
| 1777579710 | 23.33° C | 39% | 1019 hPa | 0 mm | - | 710 W/m² | - |
| 1777579409 | 23.89° C | 40% | 1019.1 hPa | 0 mm | - | 866 W/m² | - |
| 1777579104 | 23.89° C | 40% | 1018.9 hPa | 0 mm | - | 811 W/m² | - |
| 1777578798 | 23.33° C | 43% | 1019.1 hPa | 0 mm | - | 998 W/m² | - |
| 1777578494 | 22.78° C | 44% | 1019 hPa | 0 mm | - | 813 W/m² | - |
| 1777578189 | 22.78° C | 41% | 1019.1 hPa | 0 mm | - | 756 W/m² | - |
| 1777577885 | 22.78° C | 41% | 1019.4 hPa | 0 mm | - | 786 W/m² | - |
| 1777577580 | 22.78° C | 43% | 1019.3 hPa | 0 mm | - | 774 W/m² | - |
| 1777577278 | 22.78° C | 41% | 1019.4 hPa | 0 mm | - | 761 W/m² | - |
| 1777576974 | 22.78° C | 45% | 1019.3 hPa | 0 mm | - | 854 W/m² | - |
| 1777576670 | 22.78° C | 43% | 1019.5 hPa | 0 mm | - | 813 W/m² | - |
| 1777576370 | 23.33° C | 41% | 1019.6 hPa | 0 mm | - | 783 W/m² | - |
| 1777576066 | 23.33° C | 42% | 1019.7 hPa | 0 mm | - | 800 W/m² | - |
| 1777575762 | 22.22° C | 43% | 1019.6 hPa | 0 mm | - | 769 W/m² | - |
| 1777575459 | 22.22° C | 42% | 1019.9 hPa | 0 mm | - | 744 W/m² | - |
* Rain latest hour (hover to see other rain measurements)
** Current wind speed in m/s (hover to see current wind gust speed)